Location: Bauen
(46.9356°N, 8.5784°E)
Time: 06:37:41
(UTC+00:00)

STARLINK-1176 - Pass Details

Date: 18 February 2020
Orbit: 378 x 381 km, 53.0° (Epoch: 09 April)

Event Time Altitude Azimuth Distance (km) Brightness Sun altitude
Exits shadow 03:32:24 11° 52° (NE) 1,389 6.4 -30.2°
Drops below altitude 10° 03:32:30 10° 53° (NE) 1,424 6.5 -30.1°
Enters shadow 04:28:31 -69° 263° (W) 12,330 10.5 -20.7°
